Regional Weather Roundup
Issued by NWS

Home | Current Version | Previous Version | Text Only | Print | Product List | Glossary On
Versions: 1 2 3 4 5 6 7 8 9 10 11 12 13 14 15 16 17 18 19 20 21 22 23 24 25 26 27 28 29 30 31 32 33 34 35 36 37 38 39 40 41 42 43 44 45 46 47 48 49 50
000
ASUS44 KEWX 262203
RWRTX
SOUTH TEXAS REGIONAL WEATHER ROUNDUP
NATIONAL WEATHER SERVICE AUSTIN/SAN ANTONIO TX
500 PM CDT WED APR 26 2017

NOTE: "FAIR" INDICATED FEW OR NO CLOUDS BELOW 12,000 FEET WITH NO
SIGNIFICANT WEATHER AND/OR OBSTRUCTIONS TO VISIBILITY.

* - THESE STATIONS ARE NOT NWS OR FAA STATIONS...AND ARE NOT SUBJECT
    TO NWS AND FAA QUALITY CONTROL.

TXZ171-172-183>190-262300-
TEXAS HILL COUNTRY AND EDWARDS PLATEAU

CITY           SKY/WX    TMP DP  RH WIND       PRES   REMARKS
JUNCTION       SUNNY     80  35  19 NW21G28   29.72S
*LLANO         SUNNY     81  48  32 N18G31    29.71R
BURNET         SUNNY     81  41  24 NW23G35   29.68R
*HORSESHOE BAY SUNNY     84  37  18 NW18G26   29.66R
*KERRVILLE     SUNNY     82  31  16 NW17G30   29.69S
*FREDERICKSBRG SUNNY     81  28  14 NW23G30   29.69S
*ROCKSPRINGS   SUNNY     79  36  21 NW22G32   29.75S
*BOERNE STAGE  SUNNY     82  30  15 NW14G26   29.67S
*CASTROVILLE   SUNNY     90  29  11 NW25G35   29.64R
HONDO          SUNNY     89  32  13 NW23G33   29.64R
*UVALDE        SUNNY     87  38  18 N17G25    29.63F
DEL RIO        SUNNY     89  32  13 NW17G26   29.64S
LAUGHLIN AFB   MOSUNNY   88  35  14 N20G33    29.65S
CARRIZO SPRGS  SUNNY     90  39  17 N14G25    29.61S
*EAGLE PASS    NOT AVBL
$$

TXZ173-191>194-202-209-217>225-228-262300-
CENTRAL AND SOUTH CENTRAL TEXAS

CITY           SKY/WX    TMP DP  RH WIND       PRES   REMARKS
GEORGETOWN     SUNNY     86  37  17 W22G32    29.62R
AUSTIN/BERGSTM MOSUNNY   88  35  15 W16G30    29.59S
AUSTIN/MABRY     N/A     87  39  18 NW10G21   29.62R
*AUSTIN/EXEC   SUNNY     86  34  15 W21G35    29.61S
*LAGO VISTA    SUNNY     85  35  16 W17G32    29.65S
SAN MARCOS     SUNNY     90  37  15 NW18G32   29.61R
NEW BRAUNFELS  SUNNY     91  34  13 NW22G29   29.59S
RANDOLPH AFB   SUNNY     90  33  13 W23G30    29.60F
PT SAN ANTONIO SUNNY     89  32  13 NW23G30   29.60S
SAN ANTONIO    MOSUNNY   89  34  14 NW24G31   29.62R
STINSON FIELD  SUNNY     92  31  11 NW15G28   29.59R
*LA GRANGE     SUNNY     90  45  20 NW14G22   29.56R
*GIDDINGS      SUNNY     88  37  16 NW17G28   29.59R
*GONZALES      SUNNY     92  44  18 NW18G26   29.57R
$$

TXZ163>164-176>182-195>201-210>213-226-227-235-262300-
SOUTHEAST TEXAS

CITY           SKY/WX    TMP DP  RH WIND       PRES   REMARKS
COLLEGE STN    SUNNY     83  59  44 NW17G30   29.58R
*BRYAN         SUNNY     81  60  48 NW15      29.59R
*CALDWELL      NOT AVBL
*CROCKETT      MOSUNNY   68  59  73 NW14G24   29.62R
*BRENHAM       SUNNY     90  53  28 NW18G28   29.57R
HUNTSVILLE     CLOUDY    80  62  54 N13G23    29.56R
CONROE         SUNNY     89  69  51 SW10G21   29.50F HX  93
HOUSTON BUSH   PTSUNNY   88  69  53 SW8       29.51F HAZE    HX  92
HOUSTON HOBBY  MOSUNNY   88  71  57 SW14      29.51F HX  94
*HOUSTON SW AP SUNNY     89  71  55 W5        29.53F HX  94
PEARLAND       MOSUNNY   89  70  53 W8        29.53F HX  94
HOUSTON HOOKS  PTSUNNY   89  70  53 SW12      29.51F HX  94
ELLINGTON FLD  NOT AVBL
SUGAR LAND     SUNNY     91  71  51 W9        29.51F HX  97
*HOUSTON EXEC  MOSUNNY   91  63  38 NW13G18   29.53S HX  92
*CLEVELAND MUN MOSUNNY   87  74  64 S9        29.51F HX  95
*WHARTON       MOSUNNY   92  51  24 W18       29.54S
*COLUMBUS      FAIR      90  41  17 NW17G24   29.56R
*EAGLE LAKE    CLEAR     92  48  22 NW14G25   29.55R
$$

TXZ214>216-236>238-262300-
THE UPPER TEXAS COAST

CITY           SKY/WX    TMP DP  RH WIND       PRES   REMARKS
*ORANGE        CLOUDY    79  74  86 S12G17    29.56F FOG
PORT ARTHUR    CLOUDY    80  73  79 S12G21    29.54F
GALVESTON      MOSUNNY   82  76  81 S16       29.55F HAZE
ANGLETON       CLOUDY    88  77  69 S13       29.53F HX 100
*BAY CITY      PTSUNNY   90  70  51 W6        29.53F HX  95
PALACIOS       MOSUNNY   83  74  74 S10       29.54S
$$

TXZ229>234-239>247-262300-
TEXAS COASTAL BEND AND RIO GRANDE PLAINS

CITY           SKY/WX    TMP DP  RH WIND       PRES   REMARKS
VICTORIA       SUNNY     94  48  20 NW17      29.54S HX  90
*BEEVILLE      SUNNY     95  44  17 NW15G25   29.56F HX  91
ROCKPORT       SUNNY     98  54  22 NW15      29.53S HX  96
*PORT ARANSAS  SUNNY     97  54  23 NW15G23   29.53F HX  94
*PORT LAVACA   SUNNY     94  56  27 NW15      29.54S HX  92
*INGLESIDE     SUNNY    100  48  17 N21G31    29.53S HX  96
CORPUS CHRISTI MOSUNNY   98  48  18 NW21G31   29.54S HX  94
CORPUS NAS     MOSUNNY   99  57  24 N18       29.54S HX  98
*ROBSTOWN      SUNNY     99  43  14 N18G24    29.55S HX  94
ALICE          SUNNY     97  41  14 N17G29    29.55S HX  92
KINGSVILLE NAS MOSUNNY   99  48  17 NW16G30   29.54F HX  95
COTULLA        SUNNY     96  33  11 N20G29    29.59F HX  91
*FAITH RANCH   SUNNY     95  36  12 NW18G25   29.60F HX  90
LAREDO         SUNNY     96  45  17 NW16      29.59S HX  92
$$

TXZ248>255-262300-
DEEP SOUTH TEXAS

CITY           SKY/WX    TMP DP  RH WIND       PRES   REMARKS
BROWNSVILLE    SUNNY     96  68  39 NE17G25   29.54R HX 101
PORT ISABEL    SUNNY     92  71  50 E16       29.54R HX  98
*SOUTH PADRE   NOT AVBL
HARLINGEN      SUNNY    101  58  24 N20       29.52S HX 100
*HEBBRONVILLE  SUNNY     94  39  14 N18G24    29.59F HX  90
MCALLEN        SUNNY    103  53  19 N16G26    29.54S HX 101
*WESLACO       SUNNY     99  55  23 N13G22    29.53S HX  97
FALFURRIAS     SUNNY     98  40  13 N10G21    29.54F HX  93
EDINBURG       SUNNY    101  46  15 N16G25    29.54S HX  97
*ZAPATA        SUNNY     98  39  13 N13G20    29.57R HX  93
$$

TXZ213>215-236>238-242>244-246-247-251-254-255-262300-
CMAN STATIONS

STATION/POSITION TIME  TEMP    WIND        PRES    WAVE
                       AIR SEA DIR/SP/G            HT/PER
                 (UTC) (F)     (DEG/KT/KT) (MB)    (FT/S)
SABINE PASS      2130   76 78  170/ 11/ 16 1002.3
SEA RIM ST PARK  2100   76     180/  9/ 12 1001.5
NORTH JETTY/GLS  2130      76  170/ 12/ 14 1000.1
EAGLE POINT      2130   79 76  200/ 14/ 16  999.8
MORGANS POINT    2130   80 75  160/  7/ 10  999.7
MISSION/ARANSAS  2100   90                 1000.0
PORT O`CONNOR    2130   79     170/ 13/ 14  999.9
PORT ARANSAS     2100   80 80  130/  9/ 10 1000.4
MALAQUITE BEACH  2130   93 80  310/ 15/ 18 1000.9
BAFFIN BAY       2130   92 84  290/ 20/ 25 1000.5
PORT ISABEL      2130   87 78   30/  1/  4 1000.5
$$

GMZ080-GMZ150>470-262300-
OFFSHORE BUOY REPORTS

STATION/POSITION TIME  TEMP    WIND        PRES    WAVE
                       AIR SEA DIR/SP/G            HT/PER
                 (UTC) (F)     (DEG/KT/KT) (MB)    (FT/S)
20 E GALVESTON   2050   76 76  190/ 10/ 12 1001.0    6/ 8
90 E PT ARANSAS  2050   77 76  200/  6/  6 1001.2    7/ 8
35 NE PT MANSFLD 2050   78     190/  2/  4 1000.1    7/ 8
200 E PT ISABEL  2050   80 79  170/ 17/ 21 1001.0    6/ 7
$$




USA.gov is the U.S. government's official web portal to all federal, state and local government web resources and services.